CW6090 Weather Reports


Display with metric or nautical units.
time (UTC)temp
F
wind
direction
speed
MPH
gust
MPH
rain 1hr
in
rain 24hr
in
rain mn
in
humidity
%
barometer
mb
20260906075455 64 307 0.0 1.0 0.00 0.00 0.00 99 1015.6
20260906074951 64 295 0.0 0.0 0.00 0.00 0.00 99 1015.7
20260906074451 65 299 0.0 0.0 0.00 0.00 0.00 99 1015.7
20260906073949 65 308 1.0 1.0 0.00 0.00 0.00 99 1015.7
20260906073444 65 305 0.0 1.0 0.00 0.00 0.00 99 1016.1
20260906072941 65 313 1.0 2.0 0.00 0.00 0.00 99 1016.0
20260906072435 65 303 0.0 0.0 0.00 0.00 0.00 99 1016.0
20260906071931 64 308 1.0 1.0 0.00 0.00 0.00 99 1016.1
20260906071427 65 305 1.0 1.0 0.00 0.00 0.00 99 1016.1
20260906070923 66 307 1.0 1.0 0.00 0.00 0.00 99 1016.0
20260906070419 66 307 1.0 1.0 0.00 0.00 0.00 99 1015.7
20260906065915 66 306 1.0 1.0 0.00 0.00 0.00 99 1015.8
20260906065408 66 321 1.0 1.0 0.00 0.00 0.00 99 1015.8
20260906064904 66 308 1.0 1.0 0.00 0.00 0.00 99 1016.0
20260906064401 66 294 0.0 1.0 0.00 0.00 0.00 99 1016.0
20260906063900 65 316 1.0 1.0 0.00 0.00 0.00 99 1016.1
20260906063355 65 300 0.0 0.0 0.00 0.00 0.00 99 1016.2
20260906062850 65 302 0.0 0.0 0.00 0.00 0.00 99 1016.4
20260906062349 65 302 0.0 0.0 0.00 0.00 0.00 99 1016.3
20260906061845 65 303 0.0 1.0 0.00 0.00 0.00 99 1016.2
20260906061342 65 302 0.0 0.0 0.00 0.00 0.00 99 1016.3
20260906060836 64 302 0.0 1.0 0.00 0.00 0.00 99 1016.5
20260906060334 64 294 0.0 1.0 0.00 0.00 0.00 99 1016.5
20260906055829 64 301 0.0 0.0 0.00 0.00 0.00 99 1016.6
20260906055325 64 301 0.0 0.0 0.00 0.00 0.00 99 1016.5
20260906054820 64 301 0.0 0.0 0.00 0.00 0.00 99 1016.7
20260906054315 65 301 0.0 0.0 0.00 0.00 0.00 99 1016.7
20260906053812 65 305 0.0 1.0 0.00 0.00 0.00 99 1016.9
20260906053307 64 301 0.0 0.0 0.00 0.00 0.00 99 1016.9
20260906052802 64 301 0.0 0.0 0.00 0.00 0.00 99 1017.0
20260906052258 65 301 0.0 0.0 0.00 0.00 0.00 99 1016.8
20260906051755 65 306 0.0 1.0 0.00 0.00 0.00 99 1016.8
20260906051254 65 306 0.0 1.0 0.00 0.00 0.00 99 1016.8
20260906050750 65 307 1.0 1.0 0.00 0.00 0.00 99 1016.9
20260906050245 65 306 1.0 1.0 0.00 0.00 0.00 99 1016.7
20260906045744 65 314 1.0 1.0 0.00 0.00 0.00 99 1016.6
20260906045238 65 308 1.0 1.0 0.00 0.00 0.00 99 1017.0
20260906044734 66 306 0.0 1.0 0.00 0.00 0.00 99 1016.9
20260906044229 66 306 0.0 1.0 0.00 0.00 0.00 99 1017.0
20260906043726 65 306 0.0 1.0 0.00 0.00 0.00 99 1017.2
20260906043221 65 308 1.0 1.0 0.00 0.00 0.00 99 1016.8
20260906042721 65 306 1.0 1.0 0.00 0.00 0.00 99 1017.2
20260906042220 65 304 0.0 1.0 0.00 0.00 0.00 99 1017.0
20260906041715 65 306 1.0 1.0 0.00 0.00 0.00 99 1017.0
20260906041211 65 304 1.0 1.0 0.00 0.00 0.00 99 1017.3
20260906040706 65 309 1.0 1.0 0.00 0.00 0.00 99 1017.2
20260906040201 65 299 0.0 0.0 0.00 0.00 0.00 99 1016.9
20260906035657 66 299 1.0 1.0 0.00 0.01 0.01 99 1016.9
20260906035152 66 305 0.0 0.0 0.00 0.01 0.01 99 1017.0
20260906034647 66 305 0.0 0.0 0.00 0.01 0.01 99 1016.9
20260906034141 66 309 1.0 1.0 0.00 0.01 0.01 99 1017.0
20260906033637 66 307 0.0 1.0 0.00 0.01 0.01 99 1017.0
20260906033131 66 308 1.0 1.0 0.00 0.01 0.01 99 1016.9
20260906032628 66 304 0.0 0.0 0.00 0.01 0.01 99 1016.9
20260906032128 66 304 0.0 0.0 0.00 0.01 0.01 99 1016.9
20260906031623 66 304 0.0 0.0 0.00 0.01 0.01 99 1016.6
20260906031119 67 304 0.0 1.0 0.00 0.01 0.01 99 1016.9
20260906030618 67 304 1.0 1.0 0.00 0.01 0.01 99 1017.2
20260906030114 67 304 0.0 0.0 0.00 0.01 0.01 99 1017.3
20260906025613 66 304 0.0 0.0 0.00 0.01 0.01 99 1017.2
20260906025111 67 304 0.0 0.0 0.00 0.01 0.01 99 1017.3
20260906024607 67 304 0.0 1.0 0.00 0.01 0.01 99 1017.4
20260906024102 67 304 0.0 1.0 0.00 0.01 0.01 98 1017.2
20260906023557 67 304 0.0 0.0 0.00 0.01 0.01 98 1017.0
20260906023051 67 308 0.0 1.0 0.00 0.01 0.01 98 1017.2
20260906022547 67 306 1.0 1.0 0.00 0.01 0.01 98 1016.9
20260906022042 67 308 0.0 1.0 0.00 0.01 0.01 98 1017.0
20260906021537 67 307 0.0 1.0 0.00 0.01 0.01 98 1016.8
20260906021036 67 307 0.0 1.0 0.00 0.01 0.01 98 1017.2
20260906020536 67 310 1.0 1.0 0.00 0.01 0.01 98 1017.0
20260906020036 67 309 1.0 1.0 0.00 0.01 0.01 98 1017.3
20260906015535 67 303 1.0 1.0 0.00 0.01 0.01 97 1017.0
20260906015035 68 307 0.0 0.0 0.00 0.01 0.01 97 1016.7
20260906014530 68 307 0.0 1.0 0.00 0.01 0.01 96 1016.8
20260906014026 68 307 0.0 0.0 0.00 0.01 0.01 95 1017.0
20260906013521 68 307 0.0 0.0 0.00 0.01 0.01 95 1016.9
20260906013017 69 308 0.0 1.0 0.00 0.01 0.01 95 1016.9
20260906012512 69 308 1.0 1.0 0.00 0.01 0.01 94 1016.8
20260906012011 69 308 0.0 1.0 0.00 0.01 0.01 94 1016.7
20260906011508 69 308 0.0 1.0 0.00 0.01 0.01 94 1016.6
20260906011008 69 311 1.0 1.0 0.00 0.01 0.01 93 1016.9
20260906010503 69 316 1.0 2.0 0.00 0.01 0.01 92 1016.7
20260906005959 70 311 1.0 2.0 0.00 0.01 0.01 91 1016.7
20260906005458 70 313 1.0 2.0 0.00 0.01 0.01 91 1016.4
20260906004957 70 311 1.0 1.0 0.00 0.01 0.01 91 1016.4
20260906004457 69 320 1.0 2.0 0.00 0.01 0.01 91 1016.5
20260906003952 69 312 1.0 2.0 0.00 0.01 0.01 91 1016.4
20260906003447 70 311 1.0 2.0 0.00 0.01 0.01 90 1016.3
20260906002942 70 311 1.0 2.0 0.00 0.01 0.01 89 1016.1
20260906002442 71 316 1.0 2.0 0.00 0.01 0.01 87 1016.2
20260906001938 71 308 1.0 1.0 0.00 0.01 0.01 87 1016.1
20260906001433 71 312 1.0 2.0 0.00 0.01 0.01 87 1016.0
20260906000923 70 326 1.0 2.0 0.00 0.01 0.01 87 1016.1
20260906000418 71 318 1.0 2.0 0.00 0.01 0.01 87 1016.1
20260905235913 71 326 2.0 2.0 0.00 0.01 0.01 87 1015.8
20260905235407 71 312 1.0 2.0 0.00 0.01 0.01 86 1015.8
20260905234902 72 321 2.0 2.0 0.00 0.01 0.01 84 1016.0
20260905234357 72 310 1.0 1.0 0.00 0.01 0.01 84 1015.6
20260905233852 73 311 1.0 1.0 0.00 0.01 0.01 83 1016.0
20260905233347 73 310 1.0 2.0 0.00 0.01 0.01 82 1015.8
20260905232846 73 308 1.0 2.0 0.00 0.01 0.01 83 1016.0
20260905232343 74 308 1.0 1.0 0.00 0.01 0.01 81 1015.7
20260905231838 74 309 1.0 1.0 0.00 0.01 0.01 80 1015.7
20260905231338 74 308 1.0 1.0 0.00 0.01 0.01 79 1015.6
20260905230835 75 306 0.0 2.0 0.00 0.01 0.01 79 1015.7
20260905230333 75 301 0.0 1.0 0.00 0.01 0.01 77 1016.0
20260905225832 76 306 1.0 1.0 0.00 0.01 0.01 77 1016.1
20260905225327 76 309 1.0 2.0 0.00 0.01 0.01 77 1016.0
20260905224827 76 307 1.0 1.0 0.00 0.01 0.01 75 1015.8
20260905224323 77 305 1.0 1.0 0.00 0.01 0.01 73 1015.8
20260905223818 77 307 0.0 2.0 0.00 0.01 0.01 72 1016.0
20260905223316 77 306 1.0 2.0 0.00 0.01 0.01 71 1016.1
20260905222811 78 303 1.0 1.0 0.00 0.01 0.01 69 1016.1
20260905222309 78 303 0.0 1.0 0.00 0.01 0.01 69 1016.1
20260905221806 79 305 1.0 2.0 0.00 0.01 0.01 69 1016.0
20260905221302 79 316 1.0 2.0 0.00 0.01 0.01 67 1016.0
20260905220757 79 314 1.0 2.0 0.00 0.01 0.01 68 1016.1
20260905220254 80 303 0.0 2.0 0.00 0.01 0.01 64 1016.1
20260905215753 80 313 1.0 1.0 0.00 0.01 0.01 64 1016.1
20260905215249 80 305 1.0 2.0 0.00 0.01 0.01 63 1016.2
20260905214744 81 304 1.0 1.0 0.00 0.01 0.01 63 1016.1
20260905214240 81 315 1.0 2.0 0.00 0.01 0.01 64 1015.8
20260905213735 82 309 1.0 2.0 0.00 0.01 0.01 62 1015.8
20260905213231 82 306 1.0 2.0 0.00 0.01 0.01 58 1016.0
20260905212726 82 313 1.0 2.0 0.00 0.01 0.01 65 1015.8
20260905212225 82 313 1.0 2.0 0.00 0.01 0.01 63 1016.0
20260905211725 82 308 1.0 2.0 0.00 0.01 0.01 66 1015.7
20260905211221 83 308 0.0 3.0 0.00 0.01 0.01 57 1015.8
20260905210717 83 22 1.0 2.0 0.00 0.01 0.01 60 1015.7
20260905210217 84 302 1.0 1.0 0.00 0.01 0.01 67 1015.7
20260905205716 82 297 1.0 2.0 0.00 0.01 0.01 68 1015.8
20260905205210 82 275 1.0 2.0 0.00 0.01 0.01 71 1016.0
20260905204710 81 288 1.0 1.0 0.00 0.01 0.01 68 1015.8
20260905204206 80 260 2.0 2.0 0.00 0.01 0.01 68 1015.7
20260905203700 81 288 1.0 3.0 0.00 0.01 0.01 70 1016.0
20260905203155 80 295 0.0 2.0 0.00 0.01 0.01 67 1016.0
20260905202651 82 291 0.0 2.0 0.00 0.01 0.01 67 1016.1
20260905202146 82 296 0.0 1.0 0.00 0.01 0.01 68 1016.0
20260905201642 81 284 1.0 1.0 0.00 0.01 0.01 70 1015.8
20260905201141 79 294 1.0 2.0 0.00 0.01 0.01 74 1015.7
20260905200637 78 274 2.0 3.0 0.00 0.01 0.01 75 1016.1
20260905200132 78 289 0.0 2.0 0.00 0.01 0.01 81 1015.8
20260905195631 75 285 1.0 1.0 0.00 0.01 0.01 84 1015.7
20260905195126 74 285 1.0 1.0 0.00 0.01 0.01 85 1015.6
20260905194621 74 282 0.0 1.0 0.00 0.01 0.01 84 1015.8
20260905194120 74 280 1.0 2.0 0.00 0.01 0.01 85 1016.1
20260905193615 74 290 1.0 1.0 0.00 0.01 0.01 84 1016.0
20260905193110 74 274 1.0 2.0 0.00 0.01 0.01 83 1016.0
20260905192606 74 279 1.0 3.0 0.00 0.01 0.01 87 1015.8
20260905192102 74 290 0.0 1.0 0.00 0.01 0.01 84 1016.0
20260905191600 74 292 0.0 0.0 0.00 0.01 0.01 80 1015.7
20260905191059 73 310 0.0 1.0 0.00 0.01 0.01 81 1015.7
20260905190557 72 315 0.0 1.0 0.00 0.01 0.01 82 1016.0
20260905190057 72 304 0.0 1.0 0.00 0.01 0.01 84 1016.0
20260905185556 72 314 1.0 1.0 0.00 0.01 0.01 85 1015.8
20260905185056 72 299 1.0 1.0 0.00 0.01 0.01 85 1015.7
20260905184550 71 295 0.0 1.0 0.00 0.01 0.01 87 1016.3
20260905184049 71 308 0.0 1.0 0.00 0.01 0.01 90 1016.3
20260905183549 70 293 1.0 1.0 0.00 0.01 0.01 90 1016.4
20260905183044 70 300 2.0 3.0 0.00 0.01 0.01 89 1016.6
20260905182538 70 288 1.0 1.0 0.00 0.01 0.01 93 1017.0
20260905182033 69 301 0.0 0.0 0.00 0.01 0.01 92 1016.7
20260905181528 69 298 0.0 1.0 0.00 0.01 0.01 93 1017.0
20260905181027 68 293 0.0 0.0 0.00 0.01 0.01 96 1017.4
20260905180527 68 304 1.0 1.0 0.00 0.01 0.01 97 1017.5
20260905180022 68 314 1.0 2.0 0.00 0.01 0.01 98 1017.4
20260905175521 67 313 1.0 2.0 0.00 0.01 0.01 98 1017.5
20260905175017 67 312 1.0 1.0 0.00 0.01 0.01 97 1017.6
20260905174513 67 332 1.0 2.0 0.00 0.01 0.01 97 1017.8
20260905174008 67 313 1.0 2.0 0.00 0.01 0.01 97 1018.1
20260905173504 67 308 1.0 2.0 0.00 0.01 0.01 96 1018.2
20260905172959 68 286 1.0 1.0 0.07 0.01 0.01 94 1018.1
20260905172457 69 297 0.0 1.0 0.07 0.01 0.01 91 1018.8
20260905171953 69 298 0.0 1.0 0.00 0.00 0.00 89 1018.8
20260905171450 70 307 1.0 1.0 0.00 0.00 0.00 86 1019.0
20260905170946 71 295 0.0 0.0 0.00 0.00 0.00 83 1019.1
20260905170442 71 303 0.0 1.0 0.00 0.00 0.00 82 1019.2
20260905165942 72 271 1.0 2.0 0.00 0.00 0.00 80 1019.0
20260905165437 72 304 1.0 2.0 0.00 0.00 0.00 79 1019.4
20260905164932 72 297 0.0 1.0 0.00 0.00 0.00 80 1019.3
20260905164432 73 295 1.0 1.0 0.00 0.00 0.00 76 1019.4
20260905163926 73 311 1.0 2.0 0.00 0.00 0.00 77 1019.7
20260905163423 73 292 1.0 8.0 0.00 0.00 0.00 75 1019.7
20260905162919 74 329 3.0 7.0 0.00 0.00 0.00 73 1019.7
20260905162413 75 1 7.0 10.0 0.00 0.00 0.00 72 1019.6
20260905161908 77 29 3.0 7.0 0.00 0.00 0.00 74 1019.9
20260905161408 78 334 4.0 4.0 0.00 0.00 0.00 81 1019.3
20260905160906 78 317 1.0 3.0 0.00 0.00 0.00 82 1019.0
20260905160400 79 326 2.0 3.0 0.00 0.00 0.00 80 1018.8
20260905155855 80 316 2.0 2.0 0.00 0.00 0.00 78 1018.5
20260905155354 81 310 0.0 1.0 0.00 0.00 0.00 77 1018.2
20260905154853 82 304 1.0 2.0 0.00 0.00 0.00 75 1018.6
20260905154349 82 341 2.0 3.0 0.00 0.00 0.00 75 1018.7
20260905153844 82 321 1.0 3.0 0.00 0.00 0.00 75 1018.6
20260905153341 82 311 2.0 2.0 0.00 0.00 0.00 75 1018.8
20260905152840 81 267 2.0 2.0 0.00 0.00 0.00 76 1018.8
20260905152339 80 300 1.0 2.0 0.00 0.00 0.00 79 1018.6
20260905151835 79 296 0.0 2.0 0.00 0.00 0.00 80 1018.7
20260905151331 79 297 1.0 1.0 0.00 0.00 0.00 81 1018.6
20260905150830 78 328 2.0 4.0 0.00 0.00 0.00 82 1018.2
20260905150325 78 321 2.0 3.0 0.00 0.00 0.00 84 1018.4
20260905145823 78 300 0.0 1.0 0.00 0.00 0.00 82 1018.2
20260905145322 79 330 2.0 2.0 0.00 0.00 0.00 81 1018.2
20260905144821 79 301 2.0 3.0 0.00 0.00 0.00 80 1018.2
20260905144317 78 316 1.0 6.0 0.00 0.00 0.00 81 1018.2
20260905143815 78 317 2.0 3.0 0.00 0.00 0.00 81 1018.1
20260905143310 78 313 1.0 3.0 0.00 0.00 0.00 84 1018.1
20260905142809 78 315 1.0 3.0 0.00 0.00 0.00 84 1018.5
20260905142305 77 320 2.0 3.0 0.00 0.00 0.00 86 1018.5
20260905141759 77 312 0.0 1.0 0.00 0.00 0.00 86 1018.5
20260905141255 76 294 0.0 1.0 0.00 0.00 0.00 87 1018.4
20260905140751 76 282 0.0 1.0 0.00 0.00 0.00 87 1018.4
20260905140250 75 13 3.0 3.0 0.00 0.00 0.00 90 1018.5
20260905135749 74 298 0.0 2.0 0.00 0.00 0.00 93 1018.5
20260905135245 74 308 1.0 1.0 0.00 0.00 0.00 93 1018.4
20260905134745 74 292 0.0 1.0 0.00 0.00 0.00 93 1018.5
20260905134244 73 297 0.0 1.0 0.00 0.00 0.00 94 1018.4
20260905133739 73 298 0.0 0.0 0.00 0.00 0.00 95 1018.4
20260905133234 73 297 0.0 0.0 0.00 0.00 0.00 95 1018.2
20260905132733 72 303 0.0 0.0 0.00 0.00 0.00 96 1018.2
20260905132229 71 278 1.0 1.0 0.00 0.00 0.00 98 1018.5
20260905131724 71 305 0.0 1.0 0.00 0.00 0.00 99 1018.6
20260905131219 70 311 1.0 1.0 0.00 0.00 0.00 99 1018.6
20260905130714 69 309 1.0 1.0 0.00 0.00 0.00 99 1018.5
20260905130213 69 308 1.0 1.0 0.00 0.00 0.00 99 1018.6
20260905125708 68 306 1.0 1.0 0.00 0.00 0.00 99 1018.8
20260905125203 68 303 0.0 1.0 0.00 0.00 0.00 99 1018.9
20260905124700 67 298 0.0 0.0 0.00 0.00 0.00 99 1018.9
20260905124155 67 298 0.0 0.0 0.00 0.00 0.00 99 1018.8
20260905123650 67 298 0.0 0.0 0.00 0.00 0.00 99 1018.6
20260905123148 67 295 0.0 0.0 0.00 0.00 0.00 99 1018.7
20260905122647 66 302 0.0 1.0 0.00 0.00 0.00 99 1018.8
20260905122142 66 310 1.0 1.0 0.00 0.00 0.00 99 1018.6
20260905121636 66 302 0.0 1.0 0.00 0.00 0.00 99 1018.8
20260905121132 66 306 1.0 1.0 0.00 0.00 0.00 99 1018.6
20260905120631 66 305 0.0 1.0 0.00 0.00 0.00 99 1018.6
20260905120126 65 304 0.0 1.0 0.00 0.00 0.00 99 1018.6
20260905115625 65 300 0.0 0.0 0.00 0.00 0.00 99 1018.7
20260905115121 65 300 0.0 0.0 0.00 0.00 0.00 99 1018.7
20260905114620 65 302 0.0 1.0 0.00 0.00 0.00 99 1018.6
20260905114119 65 304 0.0 0.0 0.00 0.00 0.00 99 1018.5
20260905113614 65 305 0.0 0.0 0.00 0.00 0.00 99 1018.2
20260905113109 65 307 1.0 1.0 0.00 0.00 0.00 99 1018.2
20260905112604 65 309 1.0 1.0 0.00 0.00 0.00 99 1018.2
20260905112100 65 302 0.0 1.0 0.00 0.00 0.00 99 1018.1
20260905111554 65 303 0.0 1.0 0.00 0.00 0.00 99 1018.1
20260905111054 65 307 1.0 1.0 0.00 0.00 0.00 99 1018.2
20260905110553 65 304 0.0 1.0 0.00 0.00 0.00 99 1018.1
20260905110048 64 308 1.0 1.0 0.00 0.00 0.00 99 1018.1
20260905105548 64 301 0.0 0.0 0.00 0.00 0.00 99 1018.1
20260905105047 64 302 0.0 1.0 0.00 0.00 0.00 99 1018.1
20260905104544 64 304 0.0 0.0 0.00 0.00 0.00 99 1017.9
20260905104043 65 302 0.0 0.0 0.00 0.00 0.00 99 1017.9
20260905103538 65 307 0.0 0.0 0.00 0.00 0.00 99 1017.9
20260905103035 65 302 0.0 0.0 0.00 0.00 0.00 99 1018.0
20260905102530 64 302 0.0 0.0 0.00 0.00 0.00 99 1018.0
20260905102026 65 301 0.0 0.0 0.00 0.00 0.00 99 1017.9
20260905101525 65 310 1.0 1.0 0.00 0.00 0.00 99 1017.8
20260905101023 65 306 0.0 1.0 0.00 0.00 0.00 99 1017.8
20260905100520 65 305 1.0 1.0 0.00 0.00 0.00 99 1017.7
20260905100019 65 302 0.0 1.0 0.00 0.00 0.00 99 1017.8
20260905095514 65 305 1.0 1.0 0.00 0.00 0.00 99 1017.7
20260905095009 65 306 1.0 1.0 0.00 0.00 0.00 99 1017.9
20260905094504 65 317 1.0 2.0 0.00 0.00 0.00 99 1017.8
20260905094003 65 308 1.0 1.0 0.00 0.00 0.00 99 1017.9
20260905093458 64 310 1.0 1.0 0.00 0.00 0.00 99 1017.8
20260905092954 64 308 1.0 1.0 0.00 0.00 0.00 99 1017.7
20260905092449 65 302 0.0 1.0 0.00 0.00 0.00 99 1017.7
20260905091945 65 305 0.0 1.0 0.00 0.00 0.00 99 1017.8
20260905091444 65 304 0.0 1.0 0.00 0.00 0.00 99 1017.6
20260905090944 65 315 1.0 1.0 0.00 0.00 0.00 99 1017.8
20260905090439 65 302 0.0 1.0 0.00 0.00 0.00 99 1017.7
20260905085938 65 302 1.0 1.0 0.00 0.00 0.00 99 1017.7
20260905085438 65 311 1.0 2.0 0.00 0.00 0.00 99 1017.7
20260905084934 65 307 1.0 2.0 0.00 0.00 0.00 99 1017.8
20260905084433 65 306 1.0 2.0 0.00 0.00 0.00 99 1017.9
20260905083928 65 308 1.0 1.0 0.00 0.00 0.00 99 1017.8
20260905083424 65 310 1.0 2.0 0.00 0.00 0.00 99 1017.7
20260905082919 65 311 1.0 2.0 0.00 0.00 0.00 99 1017.9
20260905082415 65 311 1.0 1.0 0.00 0.00 0.00 99 1017.9
20260905081916 65 304 0.0 1.0 0.00 0.00 0.00 99 1018.1
20260905081411 65 311 1.0 2.0 0.00 0.00 0.00 99 1017.8
20260905080909 65 306 1.0 1.0 0.00 0.00 0.00 99 1018.1
20260905080409 65 305 0.0 1.0 0.00 0.00 0.00 99 1018.1
20260905075908 64 305 0.0 0.0 0.00 0.00 0.00 99 1018.2